Location: Bonneuil
(46.1010°N, 2.9693°E)
Time: 03:46:26
(UTC+00:00)

BREEZE M DEB (TANK) - Pass Details

Date: 09 April 2020
Orbit: 313 x 13666 km, 49.6° (Epoch: 01 June)

Event Time Altitude Azimuth Distance (km) Brightness Sun altitude
Rises 20:37:19 0° 253° (WSW) 6,182 8.6 -21.0°
Reaches altitude 10° 20:43:03 10° 256° (WSW) 3,675 7.4 -21.8°
Maximum altitude 20:50:09 71° 341° (NNW) 639 3.2 -22.7°
Enters shadow 20:50:45 56° 40° (NE) 657 3.1 -22.8°
